Weather in Vorsma

Russia / Nizhny Novgorod Oblast'     55°59′23″N   43°16′19″E
temp.,
°C
wind,
m/s
gust,
m/s
humid.,
%
clouds,
%
prec.,
mm/h
press.,
hPa
HPBL,
m
1 december, wed
wed100:000sw111974100 0.2 9841547
03:00−1sw10167496 0.4 9861171
06:00−2sw8137499 0.0 9881003
09:00−1sw71171100 0.1 9891004
12:00−1wsw6969100 0.0 989974
15:00−2sw6968100 0.1 9901152
18:00−3sw6107419 0.0 991748
21:00−3sw6117574 0.0 991775
2 december, thu
thu200:00−3wsw588799 0.2 993795
03:00−4w588597 0.4 995760
06:00−4w5983100 0.1 997792
09:00−6w597987 0.1 1000629
12:00−5w686988 0.0 1003725
15:00−5wsw5870100 0.0 1004703
18:00−4sw4970100 0.0 1004560
21:00−4ssw51172100 0.0 1003641
3 december, fri
fri300:00−3ssw5129279 0.5 1003607
03:00−2ssw51295100 0.8 1003471
06:000sw61394100 0.1 1004526
09:00+1sw61390100 0.1 1006541
12:00+1sw6129099 0.0 1007641
15:00+1ssw499187 0.0 1008349
18:00+1s51195100 0.0 1008409
21:00+2s71591100 0.0 1005494
4 december, sat
sat400:00+3s81793100 0.0 1004704
03:00+4ssw81691100 0.1 1002940
06:00+4ssw71594100 1.0 10011006
09:00+1wsw61198100 3.1 1004686
12:00+1wsw6108414 0.3 1008827
15:00−1wsw51078100 0.3 1010455
18:00−2sw5108190 0.0 1012378
21:00−3sw4108758 0.0 1013324
5 december, sun
sun500:00−3sw49875 0.0 1014305
03:00−3wsw37895 0.0 1015272
06:00−3wsw35915 0.0 1016206
09:00−3wsw2490100 0.0 1017247
12:00−2wnw2380100 0.0 1018357
15:00−3n118292 0.0 101917
18:00−3ne2385100 0.0 102081
21:00−4ene2486100 0.0 1020143